Pluckemin, NJ

7:02 AM EDT on August 27, 2016 (GMT -0400)
Somerset

Weather History for KSMQ - December, 2012

Change the Weather History Date:

Thursday, December 6, 2012

  Actual Average Record
Temperature  
Mean Temperature 32 °F -  
Max Temperature 41 °F 42 °F 72 °F (2001)
Min Temperature 24 °F 26 °F 10 °F (2002)
Degree Days  
Heating Degree Days 32    
Moisture  
Dew Point 19 °F    
Average Humidity 61    
Maximum Humidity 88    
Minimum Humidity 40    
Precipitation  
Precipitation 0.00 in - - ()
Sea Level Pressure  
Sea Level Pressure 30.31 in    
Wind  
Wind Speed 3 mph (NNW)    
Max Wind Speed 8 mph    
Max Gust Speed -    
Visibility 10 miles    
Events      
Averages and records for this station are not official NWS values.
T = Trace of Precipitation, MM = Missing Value Source: NWS Daily Summary

Daily Weather History Graph

Daily Weather History Graph

Search for Another Location

Airport or City:

Trip Planner

Search our weather history database for the weather conditions in past years. The results will help you decide how hot, cold, wet, or windy it might be!

Date:

Astronomy

Dec. 06, 2012 Rise Set
Actual Time 7:08 AM EST 4:31 PM EST
Civil Twilight 6:37 AM EST 5:02 PM EST
Nautical Twilight 6:03 AM EST 5:36 PM EST
Astronomical Twilight 5:30 AM EST 6:09 PM EST
Moon No Moon Rise 11:58 AM EST (12/6)
Length of Visible Light 10h 24m
Length of Day
9h 23m
Waning Gibbous, 49% of the Moon is Illuminated
Dec 6
Waning Gibbous
Dec 13
New
Dec 20
First Quarter
Dec 28
Full
Jan 4
Last Quarter

Hourly Weather History & Observations

Time (EST) Temp. Windchill Dew Point Humidity Pressure Visibility Wind Dir Wind Speed Gust Speed Precip Events Conditions
12:53 AM 32.0 °F 26.4 °F 19.0 °F 59% 30.26 in 10.0 mi Variable 5.8 mph - N/A   Clear
1:53 AM 30.9 °F 26.2 °F 19.9 °F 64% 30.28 in 10.0 mi NW 4.6 mph - N/A   Clear
2:53 AM 32.0 °F 24.8 °F 19.0 °F 59% 30.28 in 10.0 mi NNW 8.1 mph - N/A   Clear
3:53 AM 30.0 °F 23.2 °F 19.0 °F 64% 30.29 in 10.0 mi NW 6.9 mph - N/A   Clear
4:53 AM 28.9 °F 25.2 °F 18.0 °F 64% 30.30 in 10.0 mi North 3.5 mph - N/A   Clear
5:53 AM 30.0 °F 22.4 °F 18.0 °F 61% 30.31 in 10.0 mi NNW 8.1 mph - N/A   Clear
6:53 AM 28.9 °F 25.2 °F 17.1 °F 61% 30.34 in 10.0 mi North 3.5 mph - N/A   Clear
7:53 AM 30.0 °F - 17.1 °F 59% 30.35 in 10.0 mi Calm Calm - N/A   Clear
8:53 AM 33.1 °F 28.7 °F 18.0 °F 54% 30.35 in 10.0 mi North 4.6 mph - N/A   Clear
9:53 AM 35.1 °F - 17.1 °F 48% 30.38 in 10.0 mi Calm Calm - N/A   Clear
10:53 AM 36.0 °F - 17.1 °F 46% 30.36 in 10.0 mi Calm Calm - N/A   Clear
11:53 AM 39.0 °F 35.7 °F 18.0 °F 43% 30.33 in 10.0 mi Variable 4.6 mph - N/A   Clear
12:53 PM 39.9 °F - 18.0 °F 41% 30.30 in 10.0 mi Calm Calm - N/A   Clear
1:53 PM 39.9 °F - 18.0 °F 41% 30.29 in 10.0 mi Calm Calm - N/A   Clear
2:53 PM 41.0 °F - 18.0 °F 40% 30.28 in 10.0 mi Calm Calm - N/A   Clear
3:53 PM 37.9 °F - 18.0 °F 45% 30.29 in 10.0 mi Calm Calm - N/A   Clear
4:53 PM 32.0 °F - 23.0 °F 69% 30.29 in 10.0 mi Calm Calm - N/A   Clear
5:53 PM 30.0 °F - 21.0 °F 69% 30.29 in 10.0 mi Calm Calm - N/A   Clear
6:53 PM 28.9 °F - 21.0 °F 72% 30.30 in 10.0 mi Calm Calm - N/A   Clear
7:53 PM 26.6 °F - 21.2 °F 80% 30.29 in 10.0 mi Calm Calm - N/A   Clear
8:53 PM 26.1 °F - 21.9 °F 84% 30.30 in 10.0 mi Calm Calm - N/A   Clear
10:53 PM 24.1 °F - 21.0 °F 88% 30.29 in 10.0 mi Calm Calm - N/A   Clear
11:53 PM 24.1 °F - 21.0 °F 88% 30.29 in 10.0 mi Calm Calm - N/A   Clear